This demonstration page uses our WeatherBlox Daily Observations layout. Learn more.

Left ArrowRight Arrow

39.01783, -85.05884

Hourly Observations for June 17, 2018

Temp ( °F °C ) Dew Point ( °F °C ) Humidity (%) Winds ( mph kmh ) Pressure ( in mb ) Visibility ( mi km ) Precip ( " mm )
12:52 am 00:52 Clear 77 25.1 72 22.4 85 85 SSW 7 11 30.06 1018 10 16 N/A
1:52 am 01:52 Clear 76 24.6 72 22.2 87 87 S 5 7 30.06 1018 10 16 N/A
2:52 am 02:52 Clear 75 24 72 22 89 89 S 5 7 30.03 1017 10 16 N/A
3:52 am 03:52 Clear 73 22.8 68 20 84 84 N N/A 30.03 1017 10 16 N/A
4:52 am 04:52 Clear 73 22.8 68 20 84 84 SW 3 6 30.03 1017 10 16 N/A
5:52 am 05:52 Mostly Clear 72 22.2 68 20 87 87 WSW 3 6 30.06 1018 10 16 N/A
6:52 am 06:52 Partly Cloudy with Mist and Fog 69 20.6 67 19.4 93 93 S 3 6 30.06 1018 6 10 N/A
7:52 am 07:52 Mostly Sunny 76 24.4 69 20.6 79 79 SSW 5 7 30.06 1018 10 16 N/A
8:52 am 08:52 Sunny 82 27.8 68 20 63 63 W 6 9 30.09 1019 10 16 N/A
9:52 am 09:52 Sunny 85 29.4 69 20.6 59 59 SW 6 9 30.06 1018 10 16 N/A
10:52 am 10:52 Sunny 88 31.1 70 21.1 55 55 WNW 8 13 30.06 1018 10 16 N/A
11:52 am 11:52 Partly Cloudy 90 32.2 70 21.1 52 52 WNW 8 13 30.06 1018 10 16 N/A
12:52 pm 12:52 Partly Cloudy 92 33.3 70 21.1 49 49 W 6 9 30.06 1018 10 16 N/A
1:52 pm 13:52 Partly Cloudy 93 33.9 67 19.4 42 42 WNW 5 7 30.06 1018 10 16 N/A
2:52 pm 14:52 Partly Cloudy 94 34.4 67 19.4 41 41 VRB 6 9 30.03 1017 10 16 N/A
3:52 pm 15:52 Partly Cloudy 93 33.9 67 19.4 42 42 VRB 3 6 30.05 1018 10 16 N/A
4:52 pm 16:52 Partly Cloudy 93 33.9 66 18.9 41 41 WSW 7 11 30.04 1017 10 16 N/A
5:52 pm 17:52 Partly Cloudy 92 33.3 67 19.4 44 44 SW 7 11 30.04 1017 10 16 N/A
6:52 pm 18:52 Partly Cloudy 91 32.8 67 19.4 45 45 SW 9 15 30.03 1017 10 16 N/A
7:52 pm 19:52 Partly Cloudy 89 31.7 68 20 50 50 SW 6 9 30.02 1017 10 16 N/A
8:52 pm 20:52 Partly Cloudy 85 29.4 69 20.6 59 59 SSW 6 9 30.01 1016 10 16 N/A
9:52 pm 21:52 Partly Cloudy 83 28.3 70 21.1 65 65 SSW 5 7 30.02 1017 10 16 N/A
10:52 pm 22:52 Partly Cloudy 80 26.7 70 21.1 71 71 SSW 6 9 30.04 1017 10 16 N/A
11:52 pm 23:52 Partly Cloudy 80 26.7 70 21.1 71 71 SSW 6 9 30.05 1018 10 16 N/A

Powered by AerisWeather